tititudorancea.com
Station Historical Data
 
Daily Summary for May 06, 2016 Units:  Metric    English   Both
« Previous Day
Next Day »
Daily Weekly Monthly Yearly Custom
  Current: High: Low: Average:
Temperature: 17.2 °C 22.7 °C 10.9 °C 16.8 °C
Dew Point: 12.2 °C 13.4 °C 7.9 °C 11 °C
Humidity: 72 % 87 % 53 % 70 %
Wind Speed: 5 km/h 11.1 km/h 0 km/h 4.7 km/h
Wind Gust: 9.7 km/h 24.5 km/h - -
Wind:SSW - - WNW
Pressure: 1022.6 hPa 1022.6 hPa 1019.9 hPa -
Precipitation: 0 mm      
Historical Graphs
 
 
Ararat weather Find more about Weather in Ararat, AU


 



 


Tabular Data for May 06, 2016
Time Temperature Dew Point Pressure Wind Wind Speed Wind Gust Humidity Rainfall Rate (Hourly)
00:04 12.7 °C 9.1 °C 1020.2 hPa NW 6.1 km/h 11.1 km/h 79 % 0 mm
00:09 12.6 °C 9 °C 1020.2 hPa NNW 3.5 km/h 13.4 km/h 79 % 0 mm
00:14 12.6 °C 9 °C 1020.2 hPa NW 5 km/h 13.4 km/h 79 % 0 mm
00:19 12.6 °C 9 °C 1020.2 hPa NW 3.5 km/h 12.2 km/h 79 % 0 mm
00:24 12.6 °C 9.2 °C 1020.2 hPa NW 3.5 km/h 12.2 km/h 80 % 0 mm
00:29 12.7 °C 9.3 °C 1020.2 hPa NW 3.5 km/h 12.2 km/h 80 % 0 mm
00:34 12.7 °C 9.3 °C 1020.2 hPa NNW 3.5 km/h 12.2 km/h 80 % 0 mm
00:39 12.7 °C 9.4 °C 1020.2 hPa NNW 3.5 km/h 12.2 km/h 80 % 0 mm
00:49 12.7 °C 9.2 °C 1020.2 hPa NW 3.5 km/h 9.7 km/h 79 % 0 mm
00:54 12.7 °C 9.4 °C 1020.5 hPa NW 2.6 km/h 11.1 km/h 80 % 0 mm
00:59 12.8 °C 9.3 °C 1020.5 hPa NW 3.5 km/h 11.1 km/h 79 % 0 mm
01:04 12.7 °C 9.2 °C 1020.2 hPa North 3.5 km/h 12.2 km/h 79 % 0 mm
01:09 12.7 °C 9.2 °C 1020.2 hPa North 5 km/h 12.2 km/h 79 % 0 mm
01:14 12.7 °C 9.2 °C 1020.2 hPa NNW 6.1 km/h 12.2 km/h 79 % 0 mm
01:19 12.7 °C 9.2 °C 1020.2 hPa North 3.5 km/h 12.2 km/h 79 % 0 mm
01:24 12.7 °C 9 °C 1020.2 hPa North 5 km/h 9.7 km/h 78 % 0 mm
01:29 12.7 °C 9 °C 1020.5 hPa North 3.5 km/h 9.7 km/h 78 % 0 mm
01:39 12.7 °C 8.9 °C 1020.2 hPa North 5 km/h 11.1 km/h 78 % 0 mm
01:44 12.7 °C 8.9 °C 1020.2 hPa North 5 km/h 11.1 km/h 78 % 0 mm
01:49 12.7 °C 8.9 °C 1020.2 hPa NNW 1.1 km/h 9.7 km/h 78 % 0 mm
01:54 12.6 °C 8.8 °C 1020.2 hPa NNW 1.1 km/h 9.7 km/h 78 % 0 mm
01:59 12.4 °C 8.7 °C 1020.5 hPa NW 2.6 km/h 6.1 km/h 78 % 0 mm
02:04 12.3 °C 8.6 °C 1020.5 hPa NW 2.6 km/h 7.2 km/h 78 % 0 mm
02:09 12.2 °C 8.6 °C 1020.5 hPa NNW 1.1 km/h 7.2 km/h 78 % 0 mm
02:14 12.2 °C 8.4 °C 1020.2 hPa Calm   7.2 km/h 78 % 0 mm
02:19 11.9 °C 8.4 °C 1020.2 hPa NNW 1.1 km/h 3.5 km/h 79 % 0 mm
02:24 11.8 °C 8.3 °C 1020.2 hPa NW 1.1 km/h 3.5 km/h 79 % 0 mm
02:29 11.7 °C 8.2 °C 1020.5 hPa NW 1.1 km/h 5 km/h 79 % 0 mm
02:34 11.6 °C 8.1 °C 1020.2 hPa NW 1.1 km/h 5 km/h 79 % 0 mm
02:39 11.6 °C 8.1 °C 1020.2 hPa NW 1.1 km/h 6.1 km/h 79 % 0 mm
02:44 11.4 °C 8.1 °C 1020.5 hPa NW 2.6 km/h 6.1 km/h 80 % 0 mm
02:49 11.4 °C 8.1 °C 1020.5 hPa NW 2.6 km/h 6.1 km/h 80 % 0 mm
02:54 11.3 °C 7.9 °C 1020.5 hPa NNW 2.6 km/h 8.7 km/h 80 % 0 mm
03:00 11.2 °C 8.1 °C 1020.5 hPa NNW 5 km/h 8.7 km/h 81 % 0 mm
03:05 11.2 °C 8.1 °C 1020.5 hPa NNW 2.6 km/h 7.2 km/h 81 % 0 mm
03:10 11.3 °C 8.3 °C 1020.5 hPa NNW 2.6 km/h 7.2 km/h 82 % 0 mm
03:15 11.3 °C 8.3 °C 1020.5 hPa NNW 3.5 km/h 8.7 km/h 82 % 0 mm
03:20 11.4 °C 8.4 °C 1020.2 hPa North 5 km/h 9.7 km/h 82 % 0 mm
03:25 11.4 °C 8.5 °C 1020.2 hPa North 2.6 km/h 9.7 km/h 82 % 0 mm
03:30 11.4 °C 8.5 °C 1020.2 hPa North 3.5 km/h 9.7 km/h 82 % 0 mm
03:35 11.4 °C 8.5 °C 1020.2 hPa North 3.5 km/h 11.1 km/h 82 % 0 mm
03:40 11.4 °C 8.5 °C 1020.2 hPa North 5 km/h 11.1 km/h 82 % 0 mm
03:45 11.4 °C 8.5 °C 1019.9 hPa NNW 1.1 km/h 9.7 km/h 82 % 0 mm
03:50 11.4 °C 8.5 °C 1019.9 hPa NNW 5 km/h 9.7 km/h 82 % 0 mm
03:55 11.4 °C 8.5 °C 1019.9 hPa North 3.5 km/h 12.2 km/h 82 % 0 mm
04:00 11.4 °C 8.5 °C 1019.9 hPa North 3.5 km/h 12.2 km/h 82 % 0 mm
04:05 11.4 °C 8.5 °C 1020.2 hPa NNW 6.1 km/h 12.2 km/h 82 % 0 mm
04:10 11.6 °C 8.6 °C 1019.9 hPa NNW 3.5 km/h 12.2 km/h 82 % 0 mm
04:15 11.6 °C 8.4 °C 1020.2 hPa NW 3.5 km/h 12.2 km/h 81 % 0 mm
04:25 11.6 °C 8.4 °C 1019.9 hPa NW 5 km/h 12.2 km/h 81 % 0 mm
04:30 11.4 °C 8.3 °C 1020.2 hPa NW 3.5 km/h 12.2 km/h 81 % 0 mm
04:35 11.4 °C 8.3 °C 1020.2 hPa NNW 3.5 km/h 9.7 km/h 81 % 0 mm
04:45 11.4 °C 8.3 °C 1020.2 hPa NNW 3.5 km/h 9.7 km/h 81 % 0 mm
04:50 11.4 °C 8.5 °C 1020.2 hPa NNW 2.6 km/h 11.1 km/h 82 % 0 mm
04:55 11.4 °C 8.5 °C 1020.2 hPa North 6.1 km/h 12.2 km/h 82 % 0 mm
05:00 11.4 °C 8.5 °C 1020.2 hPa NNW 3.5 km/h 12.2 km/h 82 % 0 mm
05:05 11.4 °C 8.5 °C 1019.9 hPa NNW 3.5 km/h 11.1 km/h 82 % 0 mm
05:10 11.4 °C 8.5 °C 1020.2 hPa NW 5 km/h 11.1 km/h 82 % 0 mm
05:15 11.4 °C 8.4 °C 1020.2 hPa NW 2.6 km/h 9.7 km/h 82 % 0 mm
05:20 11.4 °C 8.4 °C 1020.5 hPa NNW 2.6 km/h 9.7 km/h 82 % 0 mm
05:25 11.3 °C 8.3 °C 1020.5 hPa NNW 2.6 km/h 7.2 km/h 82 % 0 mm
05:30 11.3 °C 8.3 °C 1020.5 hPa NNW 1.1 km/h 7.2 km/h 82 % 0 mm
05:35 11.2 °C 8.2 °C 1020.5 hPa North 2.6 km/h 8.7 km/h 82 % 0 mm
05:41 11.2 °C 8.2 °C 1020.5 hPa NW 3.5 km/h 8.7 km/h 82 % 0 mm
05:46 11.2 °C 8.2 °C 1020.5 hPa NW 3.5 km/h 7.2 km/h 82 % 0 mm
05:51 11.1 °C 8.3 °C 1020.5 hPa NNW 3.5 km/h 7.2 km/h 83 % 0 mm
05:56 11.1 °C 8.3 °C 1020.5 hPa NW 3.5 km/h 9.7 km/h 83 % 0 mm
06:06 11.1 °C 8.3 °C 1020.9 hPa NNW 3.5 km/h 6.1 km/h 83 % 0 mm
06:11 11.1 °C 8.3 °C 1020.9 hPa NW 2.6 km/h 6.1 km/h 83 % 0 mm
06:16 11.1 °C 8.3 °C 1020.9 hPa NW 2.6 km/h 7.2 km/h 83 % 0 mm
06:21 11.1 °C 8.5 °C 1020.9 hPa NNW 2.6 km/h 11.1 km/h 84 % 0 mm
06:26 11.1 °C 8.5 °C 1020.9 hPa NNW 3.5 km/h 11.1 km/h 84 % 0 mm
06:31 11.1 °C 8.5 °C 1020.9 hPa NW 2.6 km/h 9.7 km/h 84 % 0 mm
06:36 11.1 °C 8.5 °C 1020.9 hPa NW 2.6 km/h 9.7 km/h 84 % 0 mm
06:41 11 °C 8.4 °C 1020.9 hPa NW 2.6 km/h 6.1 km/h 84 % 0 mm
06:46 11 °C 8.4 °C 1020.9 hPa NNW 2.6 km/h 6.1 km/h 84 % 0 mm
06:51 11 °C 8.6 °C 1020.9 hPa NW 2.6 km/h 6.1 km/h 85 % 0 mm
06:56 11 °C 8.6 °C 1020.9 hPa NW 1.1 km/h 7.2 km/h 85 % 0 mm
07:01 11 °C 8.6 °C 1020.9 hPa NNW 1.1 km/h 7.2 km/h 85 % 0 mm
07:06 11 °C 8.6 °C 1020.9 hPa NNW 1.1 km/h 6.1 km/h 85 % 0 mm
07:16 11 °C 8.6 °C 1021.2 hPa NNW 2.6 km/h 9.7 km/h 85 % 0 mm
07:26 10.9 °C 8.4 °C 1021.2 hPa NNW 2.6 km/h 8.7 km/h 85 % 0 mm
07:36 11.1 °C 8.8 °C 1021.2 hPa NW 3.5 km/h 8.7 km/h 86 % 0 mm
07:41 11.2 °C 8.9 °C 1021.2 hPa NW 5 km/h 9.7 km/h 86 % 0 mm
07:46 11.4 °C 9.1 °C 1021.2 hPa NW 2.6 km/h 9.7 km/h 86 % 0 mm
07:51 11.6 °C 9.5 °C 1021.6 hPa NNW 3.5 km/h 7.2 km/h 87 % 0 mm
07:56 11.8 °C 9.7 °C 1021.6 hPa NNW 2.6 km/h 7.2 km/h 87 % 0 mm
08:01 12.1 °C 9.9 °C 1021.6 hPa NNW 2.6 km/h 7.2 km/h 87 % 0 mm
08:06 12.3 °C 10.1 °C 1021.6 hPa NNW 3.5 km/h 11.1 km/h 86 % 0 mm
08:11 12.7 °C 10.4 °C 1021.9 hPa NNW 5 km/h 13.4 km/h 86 % 0 mm
08:16 13.1 °C 10.7 °C 1021.9 hPa NNW 6.1 km/h 13.4 km/h 85 % 0 mm
08:21 13.5 °C 10.7 °C 1021.9 hPa North 3.5 km/h 12.2 km/h 83 % 0 mm
08:26 13.9 °C 10.9 °C 1021.9 hPa North 8.7 km/h 13.4 km/h 82 % 0 mm
08:31 14.3 °C 11.1 °C 1021.6 hPa North 9.7 km/h 15.8 km/h 81 % 0 mm
08:36 14.8 °C 11.4 °C 1021.9 hPa North 3.5 km/h 15.8 km/h 80 % 0 mm
08:41 15.1 °C 11.5 °C 1021.9 hPa North 3.5 km/h 13.4 km/h 79 % 0 mm
08:46 15.4 °C 11.4 °C 1021.6 hPa North 6.1 km/h 9.7 km/h 77 % 0 mm
08:51 15.8 °C 11.6 °C 1021.6 hPa North 7.2 km/h 12.2 km/h 76 % 0 mm
08:56 16 °C 11.3 °C 1021.6 hPa NNW 9.7 km/h 18.3 km/h 74 % 0 mm
09:01 16.2 °C 11.3 °C 1021.6 hPa NW 5 km/h 19.5 km/h 73 % 0 mm
09:07 16.4 °C 11.3 °C 1021.9 hPa NNW 8.7 km/h 19.5 km/h 72 % 0 mm
09:12 16.7 °C 11.6 °C 1021.9 hPa North 5 km/h 19.5 km/h 72 % 0 mm
09:17 16.9 °C 11.7 °C 1021.9 hPa North 6.1 km/h 19.5 km/h 71 % 0 mm
09:22 17.2 °C 11.7 °C 1021.9 hPa North 3.5 km/h 19.5 km/h 70 % 0 mm
09:27 17.3 °C 11.4 °C 1021.6 hPa NNW 6.1 km/h 20.9 km/h 68 % 0 mm
09:31 17.6 °C 11.6 °C 1021.9 hPa NNW 6.1 km/h 20.9 km/h 68 % 0 mm
09:36 17.8 °C 11.8 °C 1021.9 hPa North 3.5 km/h 19.5 km/h 68 % 0 mm
09:41 18.1 °C 11.8 °C 1021.9 hPa NNE 5 km/h 20.9 km/h 67 % 0 mm
09:46 18.1 °C 11.7 °C 1021.9 hPa NNE 5 km/h 20.9 km/h 66 % 0 mm
09:52 18.3 °C 11.7 °C 1021.9 hPa NNE 6.1 km/h 19.5 km/h 65 % 0 mm
09:57 18.4 °C 11.7 °C 1021.9 hPa North 9.7 km/h 18.3 km/h 65 % 0 mm
10:02 18.6 °C 11.9 °C 1021.9 hPa North 9.7 km/h 17.2 km/h 65 % 0 mm
10:07 18.8 °C 12.1 °C 1021.9 hPa North 3.5 km/h 17.2 km/h 65 % 0 mm
10:12 19.2 °C 12.2 °C 1021.9 hPa NNW 3.5 km/h 17.2 km/h 64 % 0 mm
10:17 19.4 °C 12.2 °C 1021.9 hPa North 6.1 km/h 17.2 km/h 63 % 0 mm
10:22 19.5 °C 12.3 °C 1021.9 hPa NNE 6.1 km/h 18.3 km/h 63 % 0 mm
10:27 19.7 °C 12.2 °C 1021.9 hPa North 8.7 km/h 18.3 km/h 62 % 0 mm
10:32 19.8 °C 12.6 °C 1021.9 hPa North 5 km/h 17.2 km/h 63 % 0 mm
10:37 20.3 °C 12.8 °C 1021.9 hPa NNW 5 km/h 12.2 km/h 62 % 0 mm
10:42 20.5 °C 12.7 °C 1022.2 hPa NNW 9.7 km/h 15.8 km/h 61 % 0 mm
10:47 20.7 °C 12.9 °C 1021.9 hPa NNW 7.2 km/h 15.8 km/h 61 % 0 mm
10:52 20.9 °C 12.8 °C 1022.2 hPa NNW 7.2 km/h 14.8 km/h 60 % 0 mm
10:57 20.9 °C 12.9 °C 1022.2 hPa NNW 5 km/h 18.3 km/h 60 % 0 mm
11:02 20.9 °C 12.7 °C 1022.2 hPa North 8.7 km/h 18.3 km/h 59 % 0 mm
11:07 21.2 °C 13.1 °C 1022.6 hPa North 2.6 km/h 18.3 km/h 60 % 0 mm
11:12 21.4 °C 13.1 °C 1022.2 hPa NNW 3.5 km/h 14.8 km/h 59 % 0 mm
11:17 21.6 °C 12.9 °C 1022.2 hPa NNW 7.2 km/h 12.2 km/h 58 % 0 mm
11:22 21.6 °C 12.9 °C 1022.2 hPa NNW 8.7 km/h 14.8 km/h 58 % 0 mm
11:27 21.6 °C 12.7 °C 1022.2 hPa NNE 8.7 km/h 14.8 km/h 57 % 0 mm
11:37 21.8 °C 12.9 °C 1022.2 hPa North 3.5 km/h 17.2 km/h 57 % 0 mm
11:42 21.8 °C 12.9 °C 1022.2 hPa North 7.2 km/h 17.2 km/h 57 % 0 mm
11:47 22.1 °C 13.2 °C 1021.9 hPa NNW 6.1 km/h 17.2 km/h 57 % 0 mm
11:52 22.2 °C 13.2 °C 1022.2 hPa NW 7.2 km/h 17.2 km/h 57 % 0 mm
11:57 22.1 °C 12.9 °C 1021.9 hPa NNW 11.1 km/h 19.5 km/h 56 % 0 mm
12:02 22.2 °C 12.9 °C 1021.9 hPa North 5 km/h 19.5 km/h 56 % 0 mm
12:07 22.3 °C 13.4 °C 1021.9 hPa NNW 5 km/h 17.2 km/h 57 % 0 mm
12:12 22.4 °C 13.2 °C 1021.9 hPa NNW 8.7 km/h 15.8 km/h 56 % 0 mm
12:17 22.3 °C 13.2 °C 1021.9 hPa North 7.2 km/h 18.3 km/h 56 % 0 mm
12:22 22.4 °C 13.2 °C 1021.6 hPa NNW 7.2 km/h 18.3 km/h 56 % 0 mm
12:27 22.4 °C 12.9 °C 1021.6 hPa NNW 7.2 km/h 15.8 km/h 55 % 0 mm
12:32 22.6 °C 13.3 °C 1021.6 hPa NW 3.5 km/h 18.3 km/h 56 % 0 mm
12:37 22.6 °C 13.2 °C 1021.6 hPa NW 6.1 km/h 18.3 km/h 55 % 0 mm
12:42 22.6 °C 13.1 °C 1021.6 hPa North 6.1 km/h 18.3 km/h 55 % 0 mm
12:47 22.4 °C 12.9 °C 1021.6 hPa North 7.2 km/h 21.9 km/h 55 % 0 mm
12:52 22.4 °C 12.9 °C 1021.6 hPa NNW 8.7 km/h 21.9 km/h 55 % 0 mm
12:57 22.6 °C 13.3 °C 1021.2 hPa NNW 8.7 km/h 18.3 km/h 56 % 0 mm
13:02 22.6 °C 13.2 °C 1021.2 hPa North 11.1 km/h 18.3 km/h 55 % 0 mm
13:07 22.6 °C 13.1 °C 1021.2 hPa North 8.7 km/h 24.5 km/h 55 % 0 mm
13:12 22.4 °C 12.9 °C 1021.2 hPa North 8.7 km/h 24.5 km/h 55 % 0 mm
13:17 22.4 °C 12.9 °C 1020.9 hPa North 6.1 km/h 19.5 km/h 55 % 0 mm
13:22 22.4 °C 12.9 °C 1021.2 hPa North 7.2 km/h 20.9 km/h 55 % 0 mm
13:27 22.4 °C 12.9 °C 1020.9 hPa NNW 5 km/h 20.9 km/h 55 % 0 mm
13:32 22.6 °C 13.2 °C 1020.9 hPa NNW 3.5 km/h 14.8 km/h 55 % 0 mm
13:37 22.6 °C 13.2 °C 1020.9 hPa NNW 7.2 km/h 14.8 km/h 55 % 0 mm
13:42 22.6 °C 12.9 °C 1020.9 hPa NW 6.1 km/h 21.9 km/h 54 % 0 mm
13:47 22.7 °C 13.2 °C 1020.9 hPa NNW 5 km/h 21.9 km/h 55 % 0 mm
13:52 22.6 °C 12.9 °C 1020.9 hPa North 5 km/h 21.9 km/h 54 % 0 mm
13:57 22.6 °C 13.2 °C 1020.9 hPa NNW 3.5 km/h 21.9 km/h 55 % 0 mm
14:02 22.6 °C 13.2 °C 1020.9 hPa North 6.1 km/h 21.9 km/h 55 % 0 mm
14:07 22.7 °C 12.9 °C 1020.9 hPa North 8.7 km/h 21.9 km/h 54 % 0 mm
14:13 22.7 °C 12.9 °C 1020.9 hPa NW 9.7 km/h 20.9 km/h 54 % 0 mm
14:18 22.7 °C 12.9 °C 1020.9 hPa NNW 5 km/h 20.9 km/h 54 % 0 mm
14:23 22.7 °C 12.9 °C 1020.9 hPa NNE 8.7 km/h 19.5 km/h 54 % 0 mm
14:28 22.7 °C 12.9 °C 1020.9 hPa NNE 8.7 km/h 17.2 km/h 54 % 0 mm
14:38 22.7 °C 12.9 °C 1020.9 hPa North 7.2 km/h 17.2 km/h 54 % 0 mm
14:43 22.6 °C 12.9 °C 1020.9 hPa NNW 5 km/h 20.9 km/h 54 % 0 mm
14:48 22.6 °C 12.9 °C 1020.9 hPa NW 9.7 km/h 20.9 km/h 54 % 0 mm
14:58 22.6 °C 12.8 °C 1020.9 hPa NNE 2.6 km/h 19.5 km/h 54 % 0 mm
15:03 22.6 °C 12.8 °C 1020.9 hPa North 3.5 km/h 19.5 km/h 54 % 0 mm
15:08 22.4 °C 12.7 °C 1020.5 hPa NNW 3.5 km/h 17.2 km/h 54 % 0 mm
15:13 22.4 °C 12.4 °C 1020.9 hPa NNW 7.2 km/h 20.9 km/h 53 % 0 mm
15:18 22.4 °C 12.7 °C 1020.9 hPa NNW 7.2 km/h 20.9 km/h 54 % 0 mm
15:23 22.6 °C 12.8 °C 1020.9 hPa NNW 3.5 km/h 13.4 km/h 54 % 0 mm
15:28 22.6 °C 12.8 °C 1020.9 hPa NNE 7.2 km/h 18.3 km/h 54 % 0 mm
15:33 22.6 °C 13.1 °C 1020.9 hPa NNE 5 km/h 18.3 km/h 55 % 0 mm
15:38 22.6 °C 13.1 °C 1020.9 hPa NNW 6.1 km/h 17.2 km/h 55 % 0 mm
15:43 22.4 °C 12.9 °C 1020.9 hPa NW 2.6 km/h 17.2 km/h 55 % 0 mm
15:48 22.3 °C 12.9 °C 1020.9 hPa NNW 5 km/h 18.3 km/h 55 % 0 mm
15:53 22.2 °C 13.1 °C 1020.9 hPa NW 9.7 km/h 18.3 km/h 56 % 0 mm
15:58 22.2 °C 13.1 °C 1020.9 hPa NNW 5 km/h 17.2 km/h 56 % 0 mm
16:03 22.2 °C 13.2 °C 1020.9 hPa North 6.1 km/h 17.2 km/h 57 % 0 mm
16:08 22.1 °C 13.2 °C 1020.9 hPa North 9.7 km/h 15.8 km/h 57 % 0 mm
16:13 21.8 °C 12.9 °C 1021.2 hPa NW 6.1 km/h 15.8 km/h 57 % 0 mm
16:18 21.7 °C 12.8 °C 1020.9 hPa NNW 7.2 km/h 17.2 km/h 57 % 0 mm
16:23 21.4 °C 12.9 °C 1020.9 hPa NNW 8.7 km/h 17.2 km/h 58 % 0 mm
16:28 21.4 °C 13.1 °C 1020.9 hPa NW 7.2 km/h 17.2 km/h 59 % 0 mm
16:33 21.2 °C 12.8 °C 1020.9 hPa NW 7.2 km/h 17.2 km/h 59 % 0 mm
16:38 21.1 °C 13 °C 1020.9 hPa NW 3.5 km/h 13.4 km/h 60 % 0 mm
16:43 20.9 °C 12.9 °C 1021.2 hPa NW 5 km/h 13.4 km/h 60 % 0 mm
16:48 20.9 °C 13.1 °C 1021.2 hPa WNW 2.6 km/h 11.1 km/h 61 % 0 mm
16:53 20.9 °C 13.1 °C 1021.2 hPa WNW 2.6 km/h 7.2 km/h 61 % 0 mm
16:58 20.9 °C 13.3 °C 1021.2 hPa WNW 3.5 km/h 7.2 km/h 62 % 0 mm
17:03 20.8 °C 13.2 °C 1021.2 hPa WNW 5 km/h 11.1 km/h 62 % 0 mm
17:08 20.7 °C 13.2 °C 1021.2 hPa WNW 6.1 km/h 11.1 km/h 62 % 0 mm
17:13 20.6 °C 13.1 °C 1020.9 hPa West 1.1 km/h 11.1 km/h 62 % 0 mm
17:18 20.5 °C 12.9 °C 1020.9 hPa West 5 km/h 8.7 km/h 62 % 0 mm
17:23 20.2 °C 12.9 °C 1021.2 hPa West 2.6 km/h 8.7 km/h 63 % 0 mm
17:28 20.1 °C 12.8 °C 1021.2 hPa West 2.6 km/h 8.7 km/h 63 % 0 mm
17:33 19.8 °C 12.8 °C 1021.6 hPa West 2.6 km/h 6.1 km/h 64 % 0 mm
17:38 19.6 °C 12.6 °C 1021.6 hPa WNW 1.1 km/h 6.1 km/h 64 % 0 mm
17:43 19.5 °C 12.8 °C 1021.6 hPa West 1.1 km/h 6.1 km/h 65 % 0 mm
17:48 19.3 °C 12.6 °C 1021.6 hPa West 2.6 km/h 5 km/h 65 % 0 mm
17:53 19.1 °C 12.6 °C 1021.6 hPa WNW 1.1 km/h 5 km/h 66 % 0 mm
17:58 18.9 °C 12.4 °C 1021.6 hPa WNW 1.1 km/h 3.5 km/h 66 % 0 mm
18:03 18.8 °C 12.6 °C 1021.6 hPa WNW 1.1 km/h 3.5 km/h 67 % 0 mm
18:08 18.7 °C 12.5 °C 1021.9 hPa West 1.1 km/h 3.5 km/h 67 % 0 mm
18:13 18.7 °C 12.5 °C 1021.9 hPa WSW 2.6 km/h 5 km/h 67 % 0 mm
18:18 18.7 °C 12.7 °C 1021.9 hPa SW 5 km/h 8.7 km/h 68 % 0 mm
18:23 18.7 °C 12.7 °C 1021.9 hPa SW 1.1 km/h 8.7 km/h 68 % 0 mm
18:28 18.6 °C 12.6 °C 1021.9 hPa SSW 1.1 km/h 7.2 km/h 68 % 0 mm
18:33 18.5 °C 12.5 °C 1022.2 hPa South 3.5 km/h 5 km/h 68 % 0 mm
18:38 18.3 °C 12.6 °C 1022.2 hPa South 2.6 km/h 8.7 km/h 69 % 0 mm
18:43 18.1 °C 12.6 °C 1022.2 hPa South 5 km/h 8.7 km/h 70 % 0 mm
18:48 17.9 °C 12.4 °C 1022.2 hPa SSW 2.6 km/h 9.7 km/h 70 % 0 mm
18:53 17.7 °C 12.4 °C 1022.2 hPa SSW 2.6 km/h 9.7 km/h 71 % 0 mm
18:58 17.7 °C 12.3 °C 1022.2 hPa South 3.5 km/h 7.2 km/h 71 % 0 mm
19:03 17.4 °C 12.1 °C 1022.2 hPa South 2.6 km/h 6.1 km/h 71 % 0 mm
19:08 17.2 °C 12.2 °C 1022.6 hPa SSW 5 km/h 9.7 km/h 72 % 0 mm
Ararat Weather
Compliments of Weather Underground - 1.5 mb
Click here to send mail.


ABOUT

Live weather data from Ararat, Victoria, Australia, 3377
Data uploaded from Cumulus every 5 minutes to Weather Underground.
This site then downloads the raw data for formatting and display.
Metric and imperial data can be displayed. Graphs and historical data available.
Includes Sun and Moon times and rain image live from BOM.

Check out Ararat Weather on Facebook, Twitter and Google +

Help support ongoing costs by checking out the ads





Follow @AraratWeather